Hourly Weather Roundup
Issued by NWS Central Illinois

Home | Current Version | Previous Version | Text Only | Print | Product List | Glossary On
Versions: 1 2 3 4 5 6 7 8 9 10 11 12 13 14 15 16 17 18 19 20 21 22 23 24 25 26 27 28 29 30 31 32 33 34 35 36 37 38 39 40 41 42 43 44 45 46 47 48 49 50
000
NZUS43 KILX 011710
HWRILX

AREA WEATHER ROUNDUP
NATIONAL WEATHER SERVICE, LINCOLN IL
1200 PM CDT TUE SEP 01 2015


CITY           SKY/WX    TMP DP  RH WIND       PRES   REMARKS
BLOOMINGTON    MOSUNNY   87  74  65 SE13      30.11S HX  95
CHAMPAIGN      CLOUDY    74  68  81 SE8       30.13F
DANVILLE       RAIN      69  68  98 CALM      30.09F
DECATUR        MOSUNNY   84  71  65 S7        30.11F HX  89
EFFINGHAM      MOSUNNY   83  66  55 SE5       30.14S HX  85
FLORA          MOSUNNY   84  69  60 SE3       30.12F HX  88
GALESBURG      SUNNY     86  72  61 S9        30.05F HX  92
JACKSONVILLE   SUNNY     89  71  56 SW6       30.07F HX  95
LACON          SUNNY     85  72  63 SW6       30.05S HX  91
LAWRENCEVILLE  MOSUNNY   81  69  67 CALM      30.14F HX  84
LITCHFIELD     SUNNY     85  69  58 S7        30.10F HX  89
$$


CITY           SKY/WX    TMP DP  RH WIND       PRES   REMARKS
LINCOLN        SUNNY     90  70  51 CALM      30.07F HX  95
MACOMB         SUNNY     88  69  54 SW8       30.07F HX  92
MATTOON        PTSUNNY   81  68  64 S9        30.13S HX  84
MT CARMEL AP   MOSUNNY   84  66  54 N3        30.12F HX  86
OLNEY-NOBLE AP PTSUNNY   82  70  65 S8        30.13F HX  86
PARIS          CLOUDY    71  69  94 S3        30.15F
PEORIA         SUNNY     89  73  59 S7        30.06F HX  97
PONTIAC        MOSUNNY   81  73  76 S14G21    30.10S HX  85
RANTOUL        CLOUDY    72  70  93 E6        30.14F
ROBINSON       PTSUNNY   78  69  75 CALM      30.14S HX  80
SPRINGFIELD    SUNNY     88  72  58 S7        30.08F HX  94
TAYLORVILLE    SUNNY     86  70  58 SW5       30.09F HX  90
$$

...REGIONAL REPORTS...


CITY           SKY/WX    TMP DP  RH WIND       PRES   REMARKS
CHICAGO O`HARE MOSUNNY   85  73  67 S7        30.04F HX  91
KANKAKEE       PTSUNNY   79  70  74 S16G28    30.11S HX  81
MOLINE         SUNNY     87  71  58 SW9       30.01F HX  93
MOUNT STERLING SUNNY     86  71  60 S6        30.06F HX  91
MOUNT VERNON   SUNNY     88  70  55 S7        30.13F HX  92
PITTSFIELD     SUNNY     88  69  54 S6        30.08F HX  92
QUINCY         SUNNY     87  69  54 S6        30.06F HX  91
ROCKFORD       MOSUNNY   86  73  65 SW9       30.04S HX  93
$$


CITY           SKY/WX    TMP DP  RH WIND       PRES   REMARKS
BURLINGTON     SUNNY     86  72  62 SW13      30.03F HX  92
CEDAR RAPIDS   SUNNY     83  74  74 SW8       29.99F HX  89
DES MOINES     MOSUNNY   86  69  56 SW13      29.97S HX  90
KIRKSVILLE     SUNNY     86  70  58 S9        30.06S HX  90
OTTUMWA        SUNNY     84  72  67 SW14      29.99F HX  89
ST LOUIS       SUNNY     90  70  51 SW6       30.10S HX  95
$$


CITY           SKY/WX    TMP DP  RH WIND       PRES   REMARKS
TERRE HAUTE    CLOUDY    74  64  71 S3        30.14F
EVANSVILLE     MOSUNNY   87  68  52 W7        30.13F HX  90
INDIANAPOLIS   PTSUNNY   82  67  60 SW15      30.13F HX  84
LAFAYETTE      MOSUNNY   80  64  58 SW14      30.11F HX  82
MADISON        MOSUNNY   85  69  58 S12       29.99F HX  89
MILWAUKEE      SUNNY     86  70  58 S10       30.01F HX  90
$$





USA.gov is the U.S. government's official web portal to all federal, state and local government web resources and services.